La Grande, OR

11:49 PM PST on February 08, 2016 (GMT -0800)
La Grande-Union County

Weather History for KLGD - April, 2013

Change the Weather History Date:

Monday, April 22, 2013

  Actual Average Record
Temperature  
Mean Temperature 42 °F -  
Max Temperature 51 °F 57 °F 84 °F (2012)
Min Temperature 33 °F 34 °F 24 °F (1968)
Degree Days  
Heating Degree Days 23    
Moisture  
Dew Point 25 °F    
Average Humidity 49    
Maximum Humidity 70    
Minimum Humidity 33    
Precipitation  
Precipitation 0.01 in - - ()
Sea Level Pressure  
Sea Level Pressure 30.31 in    
Wind  
Wind Speed 12 mph (NW)    
Max Wind Speed 18 mph    
Max Gust Speed 23 mph    
Visibility 10 miles    
Events      
Averages and records for this station are not official NWS values.
T = Trace of Precipitation, MM = Missing Value Source: NWS Daily Summary

Daily Weather History Graph

Daily Weather History Graph

Search for Another Location

Airport or City:

Trip Planner

Search our weather history database for the weather conditions in past years. The results will help you decide how hot, cold, wet, or windy it might be!

Date:

Astronomy

Apr. 22, 2013 Rise Set
Actual Time 5:54 AM PDT 7:47 PM PDT
Civil Twilight 5:22 AM PDT 8:19 PM PDT
Nautical Twilight 4:44 AM PDT 8:57 PM PDT
Astronomical Twilight 4:02 AM PDT 9:40 PM PDT
Moon 4:33 PM PDT (4/22) 4:00 AM PDT (4/22)
Length of Visible Light 14h 56m
Length of Day
13h 53m
Waxing Gibbous, 88% of the Moon is Illuminated
Apr 22
Waxing Gibbous
Apr 25
Full
May 2
Last Quarter
May 9
New
May 17
First Quarter

Hourly Weather History & Observations

Time (PDT) Temp. Windchill Dew Point Humidity Pressure Visibility Wind Dir Wind Speed Gust Speed Precip Events Conditions
12:15 AM 39.2 °F 33.0 °F 30.2 °F 70% 30.19 in 10.0 mi NW 9.2 mph - N/A   Overcast
12:35 AM 39.2 °F 32.0 °F 30.2 °F 70% 30.19 in 10.0 mi NW 11.5 mph - N/A   Overcast
12:55 AM 39.2 °F 32.0 °F 30.2 °F 70% 30.20 in 10.0 mi NW 11.5 mph - N/A   Mostly Cloudy
1:15 AM 39.2 °F 32.5 °F 30.2 °F 70% 30.20 in 9.0 mi WNW 10.4 mph - 0.01 in   Overcast
1:35 AM 39.2 °F 31.2 °F 28.4 °F 65% 30.20 in 10.0 mi NW 13.8 mph - 0.01 in   Mostly Cloudy
1:55 AM 39.2 °F 30.2 °F 28.4 °F 65% 30.20 in 10.0 mi NW 17.3 mph - 0.01 in   Mostly Cloudy
2:15 AM 39.2 °F 30.5 °F 28.4 °F 65% 30.20 in 10.0 mi WNW 16.1 mph 23.0 mph N/A   Mostly Cloudy
2:35 AM 39.2 °F 30.2 °F 28.4 °F 65% 30.21 in 10.0 mi WNW 17.3 mph - N/A   Mostly Cloudy
2:55 AM 39.2 °F 31.2 °F 28.4 °F 65% 30.22 in 10.0 mi NW 13.8 mph - N/A   Overcast
3:15 AM 39.2 °F 32.5 °F 28.4 °F 65% 30.22 in 10.0 mi NW 10.4 mph - N/A   Overcast
3:35 AM 37.4 °F 29.8 °F 26.6 °F 65% 30.22 in 10.0 mi WNW 11.5 mph - N/A   Scattered Clouds
3:55 AM 37.4 °F 29.3 °F 26.6 °F 65% 30.23 in 10.0 mi WNW 12.7 mph - N/A   Clear
4:15 AM 37.4 °F 28.5 °F 26.6 °F 65% 30.24 in 10.0 mi WNW 15.0 mph 18.4 mph N/A   Clear
4:35 AM 37.4 °F 29.8 °F 26.6 °F 65% 30.25 in 10.0 mi NW 11.5 mph - N/A   Partly Cloudy
4:55 AM 37.4 °F 29.8 °F 26.6 °F 65% 30.25 in 10.0 mi NW 11.5 mph - N/A   Partly Cloudy
5:15 AM 37.4 °F 28.9 °F 26.6 °F 65% 30.26 in 10.0 mi NW 13.8 mph - N/A   Clear
5:35 AM 37.4 °F 28.9 °F 24.8 °F 60% 30.27 in 10.0 mi NW 13.8 mph 17.3 mph N/A   Partly Cloudy
5:55 AM 37.4 °F 28.5 °F 24.8 °F 60% 30.28 in 10.0 mi WNW 15.0 mph - N/A   Mostly Cloudy
6:15 AM 35.6 °F 27.1 °F 24.8 °F 65% 30.28 in 10.0 mi WNW 12.7 mph - N/A   Scattered Clouds
6:35 AM 37.4 °F 30.3 °F 24.8 °F 60% 30.29 in 10.0 mi NW 10.4 mph - N/A   Clear
6:55 AM 37.4 °F 29.3 °F 26.6 °F 65% 30.29 in 10.0 mi WNW 12.7 mph 17.3 mph N/A   Clear
7:15 AM 39.2 °F 32.0 °F 26.6 °F 61% 30.30 in 10.0 mi NW 11.5 mph - N/A   Clear
7:35 AM 39.2 °F 30.8 °F 26.6 °F 61% 30.31 in 10.0 mi NW 15.0 mph - N/A   Clear
7:55 AM 41.0 °F 32.2 °F 26.6 °F 57% 30.32 in 10.0 mi WNW 18.4 mph - N/A   Clear
8:15 AM 42.8 °F 35.4 °F 26.6 °F 53% 30.33 in 10.0 mi WNW 15.0 mph 23.0 mph N/A   Clear
8:35 AM 42.8 °F 35.4 °F 28.4 °F 57% 30.33 in 10.0 mi WNW 15.0 mph - N/A   Scattered Clouds
8:55 AM 42.8 °F 35.4 °F 28.4 °F 57% 30.34 in 10.0 mi WNW 15.0 mph - N/A   Mostly Cloudy
9:15 AM 44.6 °F 39.7 °F 28.4 °F 53% 30.34 in 10.0 mi NW 9.2 mph - N/A   Partly Cloudy
9:35 AM 44.6 °F 39.2 °F 26.6 °F 49% 30.34 in 10.0 mi NW 10.4 mph - N/A   Scattered Clouds
9:55 AM 44.6 °F 39.7 °F 26.6 °F 49% 30.34 in 10.0 mi WNW 9.2 mph - N/A   Mostly Cloudy
10:15 AM 46.4 °F 40.1 °F 26.6 °F 46% 30.34 in 10.0 mi North 15.0 mph 18.4 mph N/A   Partly Cloudy
10:35 AM 46.4 °F 41.1 °F 24.8 °F 43% 30.34 in 10.0 mi North 11.5 mph - N/A   Clear
10:55 AM 48.2 °F - 26.6 °F 43% 30.34 in 10.0 mi North 10.4 mph - N/A   Clear
11:15 AM 48.2 °F - 24.8 °F 40% 30.34 in 10.0 mi North 15.0 mph 18.4 mph N/A   Partly Cloudy
11:35 AM 46.4 °F 40.7 °F 23.0 °F 40% 30.35 in 10.0 mi North 12.7 mph 20.7 mph N/A   Mostly Cloudy
11:55 AM 48.2 °F - 24.8 °F 40% 30.35 in 10.0 mi North 9.2 mph - N/A   Overcast
12:15 PM 48.2 °F - 24.8 °F 40% 30.34 in 10.0 mi North 13.8 mph - N/A   Overcast
12:35 PM 48.2 °F - 21.2 °F 34% 30.34 in 10.0 mi NNW 15.0 mph - N/A   Mostly Cloudy
12:55 PM 50.0 °F - 24.8 °F 37% 30.34 in 10.0 mi NNW 11.5 mph 18.4 mph N/A   Mostly Cloudy
1:15 PM 48.2 °F - 21.2 °F 34% 30.34 in 10.0 mi North 11.5 mph 16.1 mph N/A   Mostly Cloudy
1:35 PM 50.0 °F - 24.8 °F 37% 30.34 in 10.0 mi North 15.0 mph 19.6 mph N/A   Mostly Cloudy
1:55 PM 48.2 °F - 21.2 °F 34% 30.34 in 10.0 mi North 10.4 mph 19.6 mph N/A   Partly Cloudy
2:15 PM 50.0 °F - 24.8 °F 37% 30.34 in 10.0 mi NNW 16.1 mph - N/A   Mostly Cloudy
2:35 PM 50.0 °F - 26.6 °F 40% 30.34 in 10.0 mi NNW 15.0 mph 23.0 mph N/A   Mostly Cloudy
2:55 PM 51.8 °F - 26.6 °F 38% 30.33 in 10.0 mi NW 12.7 mph 19.6 mph N/A   Mostly Cloudy
3:15 PM 51.8 °F - 24.8 °F 35% 30.33 in 10.0 mi North 13.8 mph 18.4 mph N/A   Mostly Cloudy
3:35 PM 51.8 °F - 24.8 °F 35% 30.32 in 10.0 mi NNW 12.7 mph 17.3 mph N/A   Partly Cloudy
3:55 PM 51.8 °F - 23.0 °F 33% 30.32 in 10.0 mi WNW 10.4 mph 16.1 mph N/A   Scattered Clouds
4:15 PM 50.0 °F - 24.8 °F 37% 30.32 in 10.0 mi NW 13.8 mph - N/A   Mostly Cloudy
4:35 PM 51.8 °F - 24.8 °F 35% 30.32 in 10.0 mi WNW 17.3 mph 23.0 mph N/A   Overcast
4:55 PM 51.8 °F - 24.8 °F 35% 30.32 in 10.0 mi NW 13.8 mph 20.7 mph N/A   Overcast
5:15 PM 50.0 °F - 23.0 °F 35% 30.31 in 10.0 mi NW 12.7 mph 21.9 mph N/A   Overcast
5:35 PM 51.8 °F - 24.8 °F 35% 30.32 in 10.0 mi NW 15.0 mph 19.6 mph N/A   Overcast
5:55 PM 48.2 °F - 23.0 °F 37% 30.32 in 10.0 mi NW 16.1 mph 20.7 mph N/A   Overcast
6:15 PM 50.0 °F - 24.8 °F 37% 30.32 in 10.0 mi NW 15.0 mph - N/A   Overcast
6:35 PM 48.2 °F - 24.8 °F 40% 30.32 in 10.0 mi NW 16.1 mph 23.0 mph N/A   Scattered Clouds
6:55 PM 48.2 °F - 23.0 °F 37% 30.32 in 10.0 mi NW 13.8 mph - N/A   Clear
7:15 PM 46.4 °F 40.7 °F 23.0 °F 40% 30.32 in 10.0 mi NW 12.7 mph - N/A   Clear
7:35 PM 44.6 °F 38.4 °F 21.2 °F 39% 30.32 in 10.0 mi WNW 12.7 mph - N/A   Partly Cloudy
7:55 PM 42.8 °F 37.0 °F 21.2 °F 42% 30.33 in 10.0 mi WNW 10.4 mph - N/A   Clear
8:15 PM 42.8 °F 38.6 °F 21.2 °F 42% 30.34 in 10.0 mi NW 6.9 mph - N/A   Clear
8:35 PM 41.0 °F 35.2 °F 19.4 °F 42% 30.35 in 10.0 mi WNW 9.2 mph - N/A   Clear
8:55 PM 39.2 °F 35.0 °F 19.4 °F 45% 30.36 in 10.0 mi North 5.8 mph - N/A   Clear
9:15 PM 39.2 °F 35.9 °F 19.4 °F 45% 30.37 in 10.0 mi NNE 4.6 mph - N/A   Clear
9:35 PM 37.4 °F 33.8 °F 19.4 °F 48% 30.37 in 10.0 mi North 4.6 mph - N/A   Clear
9:55 PM 37.4 °F 31.4 °F 17.6 °F 45% 30.37 in 10.0 mi NNW 8.1 mph - N/A   Clear
10:15 PM 37.4 °F 30.3 °F 19.4 °F 48% 30.37 in 10.0 mi NW 10.4 mph - N/A   Clear
10:35 PM 37.4 °F 30.8 °F 17.6 °F 45% 30.37 in 10.0 mi NNW 9.2 mph - N/A   Clear
10:55 PM 37.4 °F 29.8 °F 17.6 °F 45% 30.37 in 10.0 mi NW 11.5 mph - N/A   Clear
11:15 PM 35.6 °F 28.6 °F 17.6 °F 48% 30.36 in 10.0 mi NW 9.2 mph - N/A   Clear
11:35 PM 33.8 °F 26.4 °F 17.6 °F 52% 30.36 in 10.0 mi NNW 9.2 mph - N/A   Clear
11:55 PM 33.8 °F 25.3 °F 17.6 °F 52% 30.36 in 10.0 mi NNW 11.5 mph - N/A   Clear